Crane Lake, MN

8:20 AM CDT on October 17, 2019 (GMT -0500)
Crane Lake

Weather History for KCDD - June, 2019

Change the Weather History Date:

Thursday, June 13, 2019

  Actual Average Record
Temperature  
Mean Temperature 48 °F -  
Max Temperature 69 °F 68 °F 86 °F (2007)
Min Temperature 28 °F 46 °F 28 °F (2019)
Degree Days  
Heating Degree Days 16    
Moisture  
Dew Point 35 °F    
Average Humidity 58    
Maximum Humidity 100    
Minimum Humidity 23    
Precipitation  
Precipitation 0.00 in - - ()
Sea Level Pressure  
Sea Level Pressure 29.95 in    
Wind  
Wind Speed 2 mph (WSW)    
Max Wind Speed 10 mph    
Max Gust Speed -    
Visibility 10 miles    
Events      
Averages and records for this station are not official NWS values.
T = Trace of Precipitation, MM = Missing Value Source: NWS Daily Summary

Daily Weather History Graph

Daily Weather History Graph

Search for Another Location

Airport or City:

Astronomy

Jun. 13, 2019 Rise Set
Actual Time 5:08 AM CDT 9:11 PM CDT
Civil Twilight 4:27 AM CDT 9:52 PM CDT
Nautical Twilight 3:29 AM CDT 10:51 PM CDT
Astronomical Twilight 1:48 AM CDT 12:32 AM CDT
Moon 5:07 PM CDT (6/13) 3:17 AM CDT (6/13)
Length of Visible Light 17h 25m
Length of Day
16h 02m
Waxing Gibbous, 85% of the Moon is Illuminated
Jun 13
Waxing Gibbous
Jun 17
Full
Jun 25
Last Quarter
Jul 2
New
Jul 9
First Quarter

Hourly Weather History & Observations

Time (CDT) Temp. Dew Point Humidity Pressure Visibility Wind Dir Wind Speed Gust Speed Precip Events Conditions
12:11 AM 35.6 °F 35.6 °F 100% 30.05 in 10.0 mi Calm Calm - N/A   Clear
12:55 AM 35.6 °F 33.8 °F 93% 30.04 in 10.0 mi Calm Calm - N/A   Clear
1:30 AM 33.8 °F 33.8 °F 100% 30.03 in 10.0 mi Calm Calm - N/A   Clear
1:55 AM 33.8 °F 32.0 °F 93% 30.03 in 10.0 mi Calm Calm - N/A   Clear
2:55 AM 30.2 °F 30.2 °F 100% 30.03 in 10.0 mi Calm Calm - N/A   Clear
3:11 AM 30.2 °F 30.2 °F 100% 30.02 in 10.0 mi Calm Calm - N/A   Clear
3:55 AM 30.2 °F 30.2 °F 100% 30.02 in 10.0 mi Calm Calm - N/A   Clear
4:55 AM 30.2 °F 30.2 °F 100% 30.03 in 10.0 mi Calm Calm - N/A   Clear
5:11 AM 28.4 °F 28.4 °F 100% 30.03 in 10.0 mi Calm Calm - N/A   Clear
5:51 AM 30.2 °F 30.2 °F 100% 30.03 in 10.0 mi Calm Calm - N/A   Clear
5:55 AM 30.2 °F 30.2 °F 100% 30.03 in 10.0 mi Calm Calm - N/A   Clear
6:55 AM 35.6 °F 35.6 °F 100% 30.03 in 10.0 mi Calm Calm - N/A   Clear
7:55 AM 48.2 °F 39.2 °F 71% 30.02 in 10.0 mi Calm Calm - N/A   Clear
8:31 AM 55.4 °F 39.2 °F 54% 30.03 in 10.0 mi West 5.8 mph - N/A   Clear
8:50 AM 55.4 °F 39.2 °F 54% 30.03 in 10.0 mi NW 4.6 mph - N/A   Clear
8:55 AM 57.2 °F 39.2 °F 51% 30.02 in 10.0 mi NNW 4.6 mph - N/A   Clear
9:51 AM 60.8 °F 39.2 °F 45% 30.01 in 10.0 mi WSW 5.8 mph - N/A   Clear
9:55 AM 60.8 °F 39.2 °F 45% 30.01 in 10.0 mi West 5.8 mph - N/A   Clear
10:55 AM 62.6 °F 35.6 °F 37% 30.00 in 10.0 mi WSW 5.8 mph - N/A   Clear
11:11 AM 64.4 °F 37.4 °F 37% 29.99 in 10.0 mi NW 4.6 mph - N/A   Clear
11:55 AM 64.4 °F 35.6 °F 34% 29.98 in 10.0 mi NNW 10.4 mph - N/A   Clear
12:30 PM 66.2 °F 35.6 °F 32% 29.97 in 10.0 mi WSW 6.9 mph - N/A   Clear
12:55 PM 66.2 °F 35.6 °F 32% 29.96 in 10.0 mi NW 4.6 mph - N/A   Clear
1:31 PM 66.2 °F 33.8 °F 30% 29.95 in 10.0 mi WSW 8.1 mph - N/A   Scattered Clouds
1:51 PM 68.0 °F 33.8 °F 28% 29.94 in 10.0 mi WSW 5.8 mph - N/A   Scattered Clouds
1:55 PM 69.8 °F 35.6 °F 28% 29.94 in 10.0 mi SW 8.1 mph - N/A   Scattered Clouds
2:55 PM 66.2 °F 33.8 °F 30% 29.92 in 10.0 mi NW 4.6 mph - N/A   Mostly Cloudy
3:55 PM 69.8 °F 30.2 °F 23% 29.91 in 10.0 mi South 5.8 mph - N/A   Scattered Clouds
4:10 PM 69.8 °F 30.2 °F 23% 29.91 in 10.0 mi South 4.6 mph - N/A   Clear
4:55 PM 69.8 °F 32.0 °F 25% 29.90 in 10.0 mi SSW 5.8 mph - N/A   Scattered Clouds
5:55 PM 69.8 °F 33.8 °F 27% 29.88 in 10.0 mi WSW 4.6 mph - N/A   Clear
6:11 PM 68.0 °F 33.8 °F 28% 29.88 in 10.0 mi SSW 5.8 mph - N/A   Clear
6:30 PM 68.0 °F 33.8 °F 28% 29.88 in 10.0 mi SW 3.5 mph - N/A   Clear
6:55 PM 66.2 °F 33.8 °F 30% 29.87 in 10.0 mi SSW 4.6 mph - N/A   Clear
7:31 PM 64.4 °F 37.4 °F 37% 29.87 in 10.0 mi SSW 4.6 mph - N/A   Clear
7:55 PM 64.4 °F 35.6 °F 34% 29.87 in 10.0 mi SSW 5.8 mph - N/A   Clear
8:55 PM 62.6 °F 35.6 °F 37% 29.86 in 10.0 mi SSW 3.5 mph - N/A   Clear
9:10 PM 60.8 °F 35.6 °F 39% 29.85 in 10.0 mi Calm Calm - N/A   Clear
10:10 PM 53.6 °F 42.8 °F 67% 29.85 in 10.0 mi Calm Calm - N/A   Clear
10:31 PM 50.0 °F 44.6 °F 82% 29.85 in 10.0 mi Calm Calm - N/A   Clear
10:55 PM 48.2 °F 42.8 °F 82% 29.84 in 10.0 mi Calm Calm - N/A   Clear
11:10 PM 46.4 °F 42.8 °F 87% 29.84 in 10.0 mi Calm Calm - N/A   Clear
11:51 PM 51.8 °F 39.2 °F 62% 29.83 in 10.0 mi Calm Calm - N/A   Clear
11:55 PM 51.8 °F 39.2 °F 62% 29.82 in 10.0 mi Calm Calm - N/A   Clear